Weather History for Spokane Felts, WA

Change the Weather History Date:

Saturday, August 10, 2013

  Actual Average Record
Temperature  
Mean Temperature 78 °F 71 °F  
Max Temperature 92 °F 86 °F 100 °F (1996)
Min Temperature 63 °F 56 °F 50 °F (1997)
Degree Days  
Heating Degree Days 0 0  
Month to date heating degree days 5 0  
Since 1 June heating degree days 110 139  
Since 1 July heating degree days 5 21  
Cooling Degree Days 13 6  
Month to date cooling degree days 75 66  
Year to date cooling degree days 440 284  
Since 1 June cooling degree days 414 277  
Growing Degree Days 28 (Base 50)    
Moisture  
Dew Point 54 °F    
Average Humidity 51    
Maximum Humidity 78    
Minimum Humidity 23    
Precipitation  
Precipitation 0.07 in 0.02 in 0.07 in (2013)
Month to date precipitation 1.46 0.16  
Year to date precipitation 9.42 10.20  
Sea Level Pressure  
Sea Level Pressure 29.88 in    
Wind  
Wind Speed 3 mph (NNE)    
Max Wind Speed 16 mph    
Max Gust Speed 23 mph    
Visibility 10 miles    
Events Rain , Thunderstorm    
T = Trace of Precipitation, MM = Missing Value Source: NWS Daily Summary

Daily Weather History Graph

Daily Weather History Graph

Search for Another Location

Airport:

Trip Planner

Search our weather history database for the weather conditions in past years. The results will help you decide how hot, cold, wet, or windy it might be!

Date:

Astronomy

Aug. 10, 2013 Rise Set
Actual Time 5:38 AM PDT 8:09 PM PDT
Civil Twilight 5:04 AM PDT 8:44 PM PDT
Nautical Twilight 4:20 AM PDT 9:27 PM PDT
Astronomical Twilight 3:29 AM PDT 10:17 PM PDT
Moon 9:51 AM PDT (8/10) 9:29 PM PDT (8/10)
Length of Visible Light 15h 40m
Length of Day
14h 30m
Waxing Crescent, 15% of the Moon is Illuminated
Aug 10
Waxing Crescent
Aug 14
First Quarter
Aug 20
Full
Aug 28
Last Quarter
Sep 5
New

Hourly Weather History & Observations

Time (PDT) Temp. Heat Index Dew Point Humidity Pressure Visibility Wind Dir Wind Speed Gust Speed Precip Events Conditions
12:53 AM 68.0 °F - 57.9 °F 70% 29.88 in 10.0 mi NE 8.1 mph - 0.01 in Rain , Thunderstorm Light Thunderstorms and Rain
1:53 AM 69.1 °F - 57.0 °F 65% 29.89 in 10.0 mi NE 8.1 mph - 0.06 in Rain , Thunderstorm Light Thunderstorms and Rain
2:12 AM 69.8 °F - 55.4 °F 60% 29.97 in 10.0 mi East 8.1 mph - 0.00 in   Overcast
2:53 AM 64.9 °F - 60.1 °F 84% 29.93 in 10.0 mi North 3.5 mph - 0.02 in Rain Light Rain
3:53 AM 68.0 °F - 55.0 °F 63% 29.92 in 10.0 mi North 3.5 mph - 0.00 in   Clear
4:53 AM 66.0 °F - 59.0 °F 78% 29.88 in 10.0 mi Calm Calm - N/A   Clear
5:53 AM 64.9 °F - 57.9 °F 78% 29.88 in 10.0 mi ENE 3.5 mph - N/A   Clear
6:53 AM 64.9 °F - 57.9 °F 78% 29.91 in 10.0 mi NE 3.5 mph - N/A   Clear
7:53 AM 68.0 °F - 57.0 °F 68% 29.92 in 10.0 mi Calm Calm - N/A   Clear
8:53 AM 70.0 °F - 57.9 °F 65% 29.94 in 10.0 mi Calm Calm - N/A   Clear
9:53 AM 75.0 °F - 57.0 °F 53% 29.93 in 10.0 mi Calm Calm - N/A   Clear
10:53 AM 79.0 °F - 55.9 °F 45% 29.92 in 10.0 mi Calm Calm - N/A   Clear
11:53 AM 82.0 °F 81.7 °F 57.0 °F 42% 29.91 in 10.0 mi Calm Calm - N/A   Clear
12:53 PM 86.0 °F 85.0 °F 57.9 °F 38% 29.90 in 10.0 mi North 4.6 mph - N/A   Clear
1:53 PM 88.0 °F 85.7 °F 53.1 °F 30% 29.88 in 10.0 mi Calm Calm - N/A   Clear
2:53 PM 89.1 °F - 52.0 °F 28% 29.87 in 10.0 mi Calm Calm - N/A   Clear
3:53 PM 91.0 °F - 50.0 °F 24% 29.83 in 10.0 mi North 9.2 mph - N/A   Clear
4:53 PM 91.9 °F - 48.9 °F 23% 29.82 in 10.0 mi Variable 3.5 mph - N/A   Clear
5:53 PM 90.0 °F - 48.0 °F 24% 29.81 in 10.0 mi North 5.8 mph - N/A   Clear
6:53 PM 86.0 °F - 48.0 °F 27% 29.81 in 10.0 mi Calm Calm - N/A   Clear
7:53 PM 78.1 °F - 54.0 °F 43% 29.83 in 10.0 mi Calm Calm - N/A   Clear
8:53 PM 77.0 °F - 54.0 °F 45% 29.82 in 10.0 mi SE 5.8 mph - N/A   Clear
9:53 PM 71.1 °F - 54.0 °F 55% 29.84 in 10.0 mi Calm Calm - N/A   Clear
10:53 PM 77.0 °F - 51.1 °F 40% 29.87 in 10.0 mi SW 15.0 mph 23.0 mph N/A Thunderstorm Clear
11:13 PM 77.0 °F - 51.8 °F 41% 29.93 in 10.0 mi West 5.8 mph - N/A   Mostly Cloudy
11:53 PM 78.1 °F - 48.9 °F 36% 29.88 in 10.0 mi WSW 8.1 mph - N/A   Mostly Cloudy